User: anonymous   Login
Location: Ottawa
(45.4170°N, 75.7000°W)
Time: 08:28:14
(UTC-04:00)
Language:

Aureole 3 Rocket - Orbit

View from above orbital plane
View from above orbital plane
View from above satellite
View from above satellite

Ground track
Ground track

The orbit data is extracted from the following two-line orbital elements,

1 12849U 81094B   15125.28700654  .00001536  00000-0  14401-3 0  9990
2 12849 082.4965 040.2444 0906994 334.6773 021.2383 13.49139600637526
Epoch (UTC): 05 May 2015 06:53:17
Eccentricity: 0.0906994
inclination: 82.4965°
perigee height: 399 km
apogee height: 1751 km
right ascension of ascending node: 40.2444°
argument of perigee: 334.6773°
revolutions per day: 13.49139600
mean anomaly at epoch: 21.2383°
orbit number at epoch: 63752

The dashed part of the orbit path shows where the satellite is in the earth's shadow,  

DLR